Weather History for San Jose, CA

Change the Weather History Date:

Tuesday, June 11, 2013

  Actual Average Record
Temperature  
Mean Temperature 66 °F 68 °F  
Max Temperature 73 °F 80 °F 98 °F (1904)
Min Temperature 58 °F 56 °F 36 °F (1894)
Degree Days  
Heating Degree Days 0 1  
Month to date heating degree days 2 11  
Since 1 June heating degree days 2 11  
Since 1 July heating degree days 2061 1997  
Cooling Degree Days 1 3  
Month to date cooling degree days 30 30  
Year to date cooling degree days 97 100  
Since 1 June cooling degree days 30 30  
Growing Degree Days 15 (Base 50)    
Moisture  
Dew Point 53 °F    
Average Humidity 67    
Maximum Humidity 80    
Minimum Humidity 53    
Precipitation  
Precipitation 0.00 in 0.01 in 0.23 in (1907)
Month to date precipitation 0.00 0.06  
Year to date precipitation 2.20 9.86  
Since 1 July precipitation 9.39 14.87  
Sea Level Pressure  
Sea Level Pressure 29.95 in    
Wind  
Wind Speed 7 mph (NW)    
Max Wind Speed 17 mph    
Max Gust Speed 21 mph    
Visibility 10 miles    
Events      
T = Trace of Precipitation, MM = Missing Value Source: NWS Daily Summary

Daily Weather History Graph

Daily Weather History Graph

Search for Another Location

Airport:

Trip Planner

Search our weather history database for the weather conditions in past years. The results will help you decide how hot, cold, wet, or windy it might be!

Date:

Astronomy

Jun. 11, 2013 Rise Set
Actual Time 5:46 AM PDT 8:28 PM PDT
Civil Twilight 5:15 AM PDT 8:59 PM PDT
Nautical Twilight 4:36 AM PDT 9:38 PM PDT
Astronomical Twilight 3:53 AM PDT 10:21 PM PDT
Moon 8:31 AM PDT (6/11) 10:37 PM PDT (6/11)
Length of Visible Light 15h 43m
Length of Day
14h 42m
Waxing Crescent, 9% of the Moon is Illuminated
Jun 11
Waxing Crescent
Jun 16
First Quarter
Jun 23
Full
Jun 29
Last Quarter
Jul 8
New

Hourly Weather History & Observations

Time (PDT) Temp. Dew Point Humidity Pressure Visibility Wind Dir Wind Speed Gust Speed Precip Events Conditions
12:53 AM 59.0 °F 53.1 °F 81% 29.95 in 10.0 mi NW 6.9 mph - N/A   Partly Cloudy
1:13 AM 59.0 °F 53.6 °F 82% 29.95 in 10.0 mi NW 5.8 mph - N/A   Mostly Cloudy
1:53 AM 59.0 °F 52.0 °F 78% 29.95 in 10.0 mi NW 8.1 mph - N/A   Overcast
2:53 AM 57.9 °F 52.0 °F 81% 29.95 in 10.0 mi NNW 6.9 mph - N/A   Overcast
3:53 AM 57.9 °F 52.0 °F 81% 29.94 in 10.0 mi Calm Calm - N/A   Overcast
4:53 AM 59.0 °F 52.0 °F 78% 29.93 in 10.0 mi NNW 4.6 mph - N/A   Overcast
5:53 AM 59.0 °F 52.0 °F 78% 29.94 in 10.0 mi Calm Calm - N/A   Overcast
6:53 AM 60.1 °F 53.1 °F 78% 29.96 in 10.0 mi NW 4.6 mph - N/A   Overcast
7:53 AM 61.0 °F 53.1 °F 75% 29.96 in 10.0 mi Calm Calm - N/A   Overcast
8:53 AM 63.0 °F 53.1 °F 70% 29.98 in 10.0 mi WNW 3.5 mph - N/A   Overcast
9:19 AM 64.4 °F 53.6 °F 68% 29.98 in 10.0 mi SW 3.5 mph - N/A   Scattered Clouds
9:53 AM 66.0 °F 54.0 °F 65% 29.98 in 10.0 mi NW 8.1 mph - N/A   Partly Cloudy
10:53 AM 66.0 °F 54.0 °F 65% 29.99 in 10.0 mi NW 8.1 mph - N/A   Scattered Clouds
11:53 AM 66.9 °F 55.0 °F 66% 29.99 in 10.0 mi WNW 11.5 mph - N/A   Clear
12:53 PM 69.1 °F 54.0 °F 58% 29.97 in 10.0 mi NNW 5.8 mph - N/A   Clear
1:53 PM 70.0 °F 55.0 °F 59% 29.96 in 10.0 mi NW 5.8 mph - N/A   Clear
2:53 PM 73.0 °F 55.0 °F 53% 29.94 in 10.0 mi WNW 9.2 mph - N/A   Clear
3:53 PM 70.0 °F 54.0 °F 57% 29.93 in 10.0 mi NW 11.5 mph - N/A   Clear
4:53 PM 70.0 °F 53.1 °F 55% 29.93 in 10.0 mi WNW 11.5 mph - N/A   Clear
5:53 PM 70.0 °F 54.0 °F 57% 29.92 in 10.0 mi WNW 13.8 mph - N/A   Clear
6:53 PM 64.9 °F 53.1 °F 65% 29.92 in 10.0 mi NW 15.0 mph - N/A   Clear
7:53 PM 64.0 °F 52.0 °F 65% 29.92 in 10.0 mi NW 13.8 mph - N/A   Clear
8:53 PM 63.0 °F 51.1 °F 65% 29.93 in 10.0 mi NW 6.9 mph - N/A   Clear
9:53 PM 61.0 °F 51.1 °F 70% 29.94 in 10.0 mi WNW 5.8 mph - N/A   Clear
10:53 PM 61.0 °F 51.1 °F 70% 29.94 in 10.0 mi Calm Calm - N/A   Clear
11:53 PM 61.0 °F 50.0 °F 67% 29.93 in 10.0 mi Calm Calm - N/A   Clear